Year,Month,Day,Hour,Minute,Value (Times are PST for temperature in C)
2011,09,24,00,00,16.80
2011,09,24,00,01,16.80
2011,09,24,00,02,16.80
2011,09,24,00,03,16.80
2011,09,24,00,04,16.80
2011,09,24,00,05,16.80
2011,09,24,00,06,16.80
2011,09,24,00,07,16.80
2011,09,24,00,08,16.80
2011,09,24,00,09,16.80
2011,09,24,00,10,16.80
2011,09,24,00,11,16.80
2011,09,24,00,12,16.80
2011,09,24,00,17,16.70
2011,09,24,00,18,16.70
2011,09,24,00,19,16.70
2011,09,24,00,20,16.70
2011,09,24,00,21,16.70
2011,09,24,00,22,16.70
2011,09,24,00,23,16.70
2011,09,24,00,24,16.70
2011,09,24,00,25,16.70
2011,09,24,00,26,16.70
2011,09,24,00,27,16.70
2011,09,24,00,28,16.60
2011,09,24,00,29,16.60
2011,09,24,00,30,16.60
2011,09,24,00,31,16.60
2011,09,24,00,32,16.60
2011,09,24,00,33,16.60
2011,09,24,00,34,16.60
2011,09,24,00,35,16.60
2011,09,24,00,36,16.60
2011,09,24,00,37,16.60
2011,09,24,00,38,16.60
2011,09,24,00,39,16.60
2011,09,24,00,40,16.60
2011,09,24,00,41,16.60
2011,09,24,00,42,16.60
2011,09,24,00,43,16.60
2011,09,24,00,44,16.60
2011,09,24,00,45,16.60
2011,09,24,00,46,16.60
2011,09,24,00,47,16.60
2011,09,24,00,48,16.60
2011,09,24,00,49,16.60
2011,09,24,00,50,16.60
2011,09,24,00,51,16.60
2011,09,24,00,52,16.60
2011,09,24,00,53,16.60
2011,09,24,00,54,16.60
2011,09,24,00,55,16.60
2011,09,24,00,56,16.60
2011,09,24,00,57,16.60
2011,09,24,00,58,16.60
2011,09,24,00,59,16.60
2011,09,24,01,00,16.60
2011,09,24,01,01,16.60
2011,09,24,01,02,16.50
2011,09,24,01,03,16.50
2011,09,24,01,04,16.50
2011,09,24,01,05,16.50
2011,09,24,01,06,16.50
2011,09,24,01,07,16.50
2011,09,24,01,08,16.50
2011,09,24,01,09,16.50
2011,09,24,01,10,16.50
2011,09,24,01,11,16.50
2011,09,24,01,12,16.50
2011,09,24,01,13,16.50
2011,09,24,01,14,16.50
2011,09,24,01,15,16.50
2011,09,24,01,16,16.50
2011,09,24,01,17,16.50
2011,09,24,01,18,16.50
2011,09,24,01,19,16.50
2011,09,24,01,20,16.50
2011,09,24,01,21,16.50
2011,09,24,01,22,16.50
2011,09,24,01,23,16.50
2011,09,24,01,24,16.50
2011,09,24,01,25,16.50
2011,09,24,01,26,16.50
2011,09,24,01,27,16.50
2011,09,24,01,28,16.50
2011,09,24,01,29,16.40
2011,09,24,01,30,16.40
2011,09,24,01,31,16.40
2011,09,24,01,32,16.40
2011,09,24,01,33,16.40
2011,09,24,01,34,16.40
2011,09,24,01,35,16.40
2011,09,24,01,36,16.40
2011,09,24,01,37,16.40
2011,09,24,01,38,16.40
2011,09,24,01,39,16.40
2011,09,24,01,40,16.40
2011,09,24,01,41,16.40
2011,09,24,01,42,16.40
2011,09,24,01,43,16.40
2011,09,24,01,44,16.40
2011,09,24,01,45,16.40
2011,09,24,01,46,16.40
2011,09,24,01,47,16.40
2011,09,24,01,48,16.40
2011,09,24,01,49,16.40
2011,09,24,01,50,16.40
2011,09,24,01,51,16.40
2011,09,24,01,52,16.40
2011,09,24,01,53,16.40
2011,09,24,01,54,16.40
2011,09,24,01,55,16.40
2011,09,24,01,56,16.40
2011,09,24,01,57,16.40
2011,09,24,01,58,16.40
2011,09,24,01,59,16.40
2011,09,24,02,00,16.40
2011,09,24,02,01,16.40
2011,09,24,02,02,16.40
2011,09,24,02,03,16.40
2011,09,24,02,04,16.40
2011,09,24,02,05,16.40
2011,09,24,02,06,16.40
2011,09,24,02,07,16.40
2011,09,24,02,08,16.40
2011,09,24,02,09,16.40
2011,09,24,02,10,16.40
2011,09,24,02,11,16.40
2011,09,24,02,12,16.40
2011,09,24,02,13,16.30
2011,09,24,02,14,16.30
2011,09,24,02,15,16.30
2011,09,24,02,16,16.30
2011,09,24,02,17,16.30
2011,09,24,02,18,16.30
2011,09,24,02,19,16.30
2011,09,24,02,20,16.30
2011,09,24,02,21,16.30
2011,09,24,02,22,16.30
2011,09,24,02,23,16.30
2011,09,24,02,24,16.30
2011,09,24,02,25,16.30
2011,09,24,02,26,16.30
2011,09,24,02,27,16.30
2011,09,24,02,28,16.30
2011,09,24,02,29,16.30
2011,09,24,02,30,16.30
2011,09,24,02,31,16.30
2011,09,24,02,32,16.30
2011,09,24,02,33,16.30
2011,09,24,02,34,16.30
2011,09,24,02,35,16.30
2011,09,24,02,36,16.30
2011,09,24,02,37,16.30
2011,09,24,02,38,16.30
2011,09,24,02,39,16.30
2011,09,24,02,40,16.30
2011,09,24,02,41,16.30
2011,09,24,02,42,16.30
2011,09,24,02,43,16.30
2011,09,24,02,44,16.30
2011,09,24,02,45,16.30
2011,09,24,02,46,16.30
2011,09,24,02,47,16.30
2011,09,24,02,48,16.30
2011,09,24,02,49,16.30
2011,09,24,02,50,16.30
2011,09,24,02,51,16.30
2011,09,24,02,52,16.30
2011,09,24,02,53,16.30
2011,09,24,02,54,16.30
2011,09,24,02,55,16.30
2011,09,24,02,56,16.30
2011,09,24,02,57,16.30
2011,09,24,02,58,16.30
2011,09,24,02,59,16.30
2011,09,24,03,00,16.30
2011,09,24,03,01,16.30
2011,09,24,03,02,16.30
2011,09,24,03,03,16.30
2011,09,24,03,04,16.30
2011,09,24,03,05,16.30
2011,09,24,03,06,16.30
2011,09,24,03,07,16.30
2011,09,24,03,08,16.30
2011,09,24,03,09,16.30
2011,09,24,03,10,16.30
2011,09,24,03,11,16.30
2011,09,24,03,12,16.20
2011,09,24,03,13,16.20
2011,09,24,03,14,16.20
2011,09,24,03,15,16.20
2011,09,24,03,16,16.20
2011,09,24,03,17,16.20
2011,09,24,03,18,16.20
2011,09,24,03,19,16.20
2011,09,24,03,20,16.20
2011,09,24,03,21,16.20
2011,09,24,03,22,16.20
2011,09,24,03,23,16.20
2011,09,24,03,24,16.20
2011,09,24,03,25,16.20
2011,09,24,03,26,16.20
2011,09,24,03,27,16.20
2011,09,24,03,28,16.20
2011,09,24,03,29,16.20
2011,09,24,03,30,16.20
2011,09,24,03,31,16.20
2011,09,24,03,32,16.20
2011,09,24,03,33,16.20
2011,09,24,03,34,16.20
2011,09,24,03,35,16.20
2011,09,24,03,36,16.20
2011,09,24,03,37,16.20
2011,09,24,03,38,16.20
2011,09,24,03,39,16.20
2011,09,24,03,40,16.20
2011,09,24,03,41,16.20
2011,09,24,03,42,16.20
2011,09,24,03,43,16.20
2011,09,24,03,44,16.20
2011,09,24,03,45,16.20
2011,09,24,03,46,16.20
2011,09,24,03,47,16.20
2011,09,24,03,48,16.20
2011,09,24,03,49,16.20
2011,09,24,03,50,16.20
2011,09,24,03,51,16.20
2011,09,24,03,52,16.20
2011,09,24,03,53,16.20
2011,09,24,03,54,16.20
2011,09,24,03,55,16.20
2011,09,24,03,56,16.20
2011,09,24,03,57,16.10
2011,09,24,03,58,16.10
2011,09,24,03,59,16.10
2011,09,24,04,00,16.10
2011,09,24,04,01,16.10
2011,09,24,04,02,16.10
2011,09,24,04,03,16.10
2011,09,24,04,04,16.10
2011,09,24,04,05,16.10
2011,09,24,04,06,16.10
2011,09,24,04,07,16.00
2011,09,24,04,08,16.00
2011,09,24,04,09,16.00
2011,09,24,04,10,16.00
2011,09,24,04,11,16.00
2011,09,24,04,12,15.90
2011,09,24,04,13,15.90
2011,09,24,04,14,15.90
2011,09,24,04,15,15.90
2011,09,24,04,16,15.90
2011,09,24,04,17,15.90
2011,09,24,04,18,15.80
2011,09,24,04,19,15.80
2011,09,24,04,20,15.80
2011,09,24,04,21,15.80
2011,09,24,04,22,15.80
2011,09,24,04,23,15.80
2011,09,24,04,24,15.80
2011,09,24,04,25,15.80
2011,09,24,04,26,15.80
2011,09,24,04,27,15.80
2011,09,24,04,28,15.70
2011,09,24,04,29,15.70
2011,09,24,04,30,15.70
2011,09,24,04,31,15.70
2011,09,24,04,32,15.70
2011,09,24,04,33,15.70
2011,09,24,04,34,15.70
2011,09,24,04,35,15.70
2011,09,24,04,36,15.70
2011,09,24,04,37,15.70
2011,09,24,04,38,15.70
2011,09,24,04,39,15.70
2011,09,24,04,40,15.70
2011,09,24,04,41,15.70
2011,09,24,04,42,15.70
2011,09,24,04,43,15.70
2011,09,24,04,44,15.70
2011,09,24,04,45,15.70
2011,09,24,04,46,15.70
2011,09,24,04,47,15.70
2011,09,24,04,48,15.70
2011,09,24,04,49,15.70
2011,09,24,04,50,15.70
2011,09,24,04,51,15.70
2011,09,24,04,52,15.70
2011,09,24,04,53,15.70
2011,09,24,04,54,15.70
2011,09,24,04,55,15.70
2011,09,24,04,56,15.70
2011,09,24,04,57,15.70
2011,09,24,04,58,15.70
2011,09,24,04,59,15.70
2011,09,24,05,00,15.70
2011,09,24,05,01,15.70
2011,09,24,05,02,15.70
2011,09,24,05,03,15.70
2011,09,24,05,04,15.70
2011,09,24,05,05,15.70
2011,09,24,05,06,15.70
2011,09,24,05,07,15.70
2011,09,24,05,08,15.70
2011,09,24,05,09,15.70
2011,09,24,05,10,15.70
2011,09,24,05,11,15.70
2011,09,24,05,12,15.70
2011,09,24,05,13,15.70
2011,09,24,05,14,15.70
2011,09,24,05,15,15.70
2011,09,24,05,16,15.70
2011,09,24,05,17,15.70
2011,09,24,05,18,15.70
2011,09,24,05,19,15.70
2011,09,24,05,20,15.70
2011,09,24,05,21,15.70
2011,09,24,05,22,15.70
2011,09,24,05,23,15.70
2011,09,24,05,24,15.70
2011,09,24,05,25,15.70
2011,09,24,05,26,15.70
2011,09,24,05,27,15.70
2011,09,24,05,28,15.70
2011,09,24,05,29,15.70
2011,09,24,05,30,15.70
2011,09,24,05,31,15.70
2011,09,24,05,32,15.70
2011,09,24,05,33,15.70
2011,09,24,05,34,15.70
2011,09,24,05,35,15.70
2011,09,24,05,36,15.70
2011,09,24,05,37,15.70
2011,09,24,05,38,15.70
2011,09,24,05,39,15.70
2011,09,24,05,40,15.70
2011,09,24,05,41,15.70
2011,09,24,05,42,15.70
2011,09,24,05,43,15.70
2011,09,24,05,44,15.70
2011,09,24,05,45,15.70
2011,09,24,05,46,15.70
2011,09,24,05,47,15.70
2011,09,24,05,48,15.70
2011,09,24,05,49,15.70
2011,09,24,05,50,15.70
2011,09,24,05,51,15.70
2011,09,24,05,52,15.70
2011,09,24,05,53,15.70
2011,09,24,05,54,15.70
2011,09,24,05,55,15.70
2011,09,24,05,56,15.70
2011,09,24,05,57,15.70
2011,09,24,05,58,15.70
2011,09,24,05,59,15.70
2011,09,24,06,00,15.70
2011,09,24,06,01,15.70
2011,09,24,06,02,15.70
2011,09,24,06,03,15.70
2011,09,24,06,04,15.70
2011,09,24,06,05,15.70
2011,09,24,06,06,15.70
2011,09,24,06,07,15.70
2011,09,24,06,08,15.70
2011,09,24,06,09,15.70
2011,09,24,06,10,15.70
2011,09,24,06,11,15.70
2011,09,24,06,12,15.70
2011,09,24,06,13,15.70
2011,09,24,06,14,15.70
2011,09,24,06,15,15.70
2011,09,24,06,16,15.70
2011,09,24,06,17,15.70
2011,09,24,06,18,15.70
2011,09,24,06,19,15.70
2011,09,24,06,20,15.70
2011,09,24,06,21,15.70
2011,09,24,06,22,15.70
2011,09,24,06,23,15.70
2011,09,24,06,24,15.70
2011,09,24,06,25,15.70
2011,09,24,06,26,15.70
2011,09,24,06,27,15.70
2011,09,24,06,28,15.70
2011,09,24,06,29,15.70
2011,09,24,06,30,15.70
2011,09,24,06,31,15.70
2011,09,24,06,32,15.70
2011,09,24,06,33,15.70
2011,09,24,06,34,15.70
2011,09,24,06,35,15.70
2011,09,24,06,36,15.70
2011,09,24,06,37,15.70
2011,09,24,06,38,15.70
2011,09,24,06,39,15.70
2011,09,24,06,40,15.70
2011,09,24,06,41,15.60
2011,09,24,06,42,15.60
2011,09,24,06,43,15.60
2011,09,24,06,44,15.60
2011,09,24,06,45,15.60
2011,09,24,06,46,15.60
2011,09,24,06,47,15.60
2011,09,24,06,48,15.60
2011,09,24,06,49,15.60
2011,09,24,06,50,15.60
2011,09,24,06,51,15.60
2011,09,24,06,52,15.60
2011,09,24,06,53,15.60
2011,09,24,06,54,15.60
2011,09,24,06,55,15.60
2011,09,24,06,56,15.60
2011,09,24,06,57,15.60
2011,09,24,06,58,15.60
2011,09,24,06,59,15.60
2011,09,24,07,00,15.60
2011,09,24,07,01,15.60
2011,09,24,07,02,15.60
2011,09,24,07,03,15.60
2011,09,24,07,04,15.60
2011,09,24,07,05,15.60
2011,09,24,07,06,15.60
2011,09,24,07,07,15.60
2011,09,24,07,08,15.60
2011,09,24,07,09,15.50
2011,09,24,07,10,15.50
2011,09,24,07,11,15.50
2011,09,24,07,12,15.50
2011,09,24,07,13,15.50
2011,09,24,07,14,15.50
2011,09,24,07,15,15.50
2011,09,24,07,16,15.50
2011,09,24,07,17,15.50
2011,09,24,07,18,15.50
2011,09,24,07,19,15.50
2011,09,24,07,20,15.50
2011,09,24,07,21,15.50
2011,09,24,07,22,15.50
2011,09,24,07,23,15.50
2011,09,24,07,24,15.50
2011,09,24,07,25,15.40
2011,09,24,07,26,15.40
2011,09,24,07,27,15.50
2011,09,24,07,28,15.40
2011,09,24,07,29,15.40
2011,09,24,07,30,15.40
2011,09,24,07,31,15.40
2011,09,24,07,32,15.40
2011,09,24,07,33,15.40
2011,09,24,07,34,15.40
2011,09,24,07,35,15.40
2011,09,24,07,36,15.40
2011,09,24,07,37,15.40
2011,09,24,07,38,15.40
2011,09,24,07,39,15.40
2011,09,24,07,40,15.40
2011,09,24,07,41,15.40
2011,09,24,07,42,15.40
2011,09,24,07,43,15.40
2011,09,24,07,44,15.40
2011,09,24,07,45,15.40
2011,09,24,07,46,15.40
2011,09,24,07,47,15.40
2011,09,24,07,48,15.40
2011,09,24,07,49,15.30
2011,09,24,07,50,15.40
2011,09,24,07,51,15.30
2011,09,24,07,52,15.30
2011,09,24,07,53,15.30
2011,09,24,07,54,15.40
2011,09,24,07,55,15.40
2011,09,24,07,56,15.40
2011,09,24,07,57,15.40
2011,09,24,07,58,15.40
2011,09,24,07,59,15.40
2011,09,24,08,00,15.40
2011,09,24,08,01,15.40
2011,09,24,08,02,15.30
2011,09,24,08,03,15.30
2011,09,24,08,04,15.30
2011,09,24,08,05,15.20
2011,09,24,08,06,15.20
2011,09,24,08,07,15.20
2011,09,24,08,08,15.20
2011,09,24,08,09,15.20
2011,09,24,08,10,15.20
2011,09,24,08,11,15.20
2011,09,24,08,12,15.20
2011,09,24,08,13,15.20
2011,09,24,08,14,15.20
2011,09,24,08,15,15.20
2011,09,24,08,16,15.20
2011,09,24,08,17,15.20
2011,09,24,08,18,15.20
2011,09,24,08,19,15.20
2011,09,24,08,20,15.20
2011,09,24,08,21,15.20
2011,09,24,08,22,15.20
2011,09,24,08,23,15.20
2011,09,24,08,24,15.20
2011,09,24,08,25,15.30
2011,09,24,08,26,15.30
2011,09,24,08,27,15.30
2011,09,24,08,28,15.30
2011,09,24,08,29,15.30
2011,09,24,08,30,15.30
2011,09,24,08,31,15.30
2011,09,24,08,32,15.30
2011,09,24,08,33,15.30
2011,09,24,08,34,15.30
2011,09,24,08,35,15.40
2011,09,24,08,36,15.40
2011,09,24,08,37,15.40
2011,09,24,08,38,15.40
2011,09,24,08,39,15.40
2011,09,24,08,40,15.50
2011,09,24,08,41,15.50
2011,09,24,08,42,15.50
2011,09,24,08,43,15.50
2011,09,24,08,44,15.60
2011,09,24,08,45,15.60
2011,09,24,08,46,15.60
2011,09,24,08,47,15.60
2011,09,24,08,48,15.70
2011,09,24,08,49,15.70
2011,09,24,08,50,15.80
2011,09,24,08,51,15.80
2011,09,24,08,52,15.80
2011,09,24,08,53,15.80
2011,09,24,08,54,15.90
2011,09,24,08,55,15.90
2011,09,24,08,56,15.90
2011,09,24,08,57,15.90
2011,09,24,08,58,16.00
2011,09,24,08,59,16.00
2011,09,24,09,00,16.10
2011,09,24,09,01,16.10
2011,09,24,09,02,16.10
2011,09,24,09,03,16.10
2011,09,24,09,04,16.20
2011,09,24,09,05,16.10
2011,09,24,09,06,16.10
2011,09,24,09,07,16.20
2011,09,24,09,08,16.20
2011,09,24,09,09,16.10
2011,09,24,09,10,16.10
2011,09,24,09,11,16.10
2011,09,24,09,12,16.10
2011,09,24,09,13,16.10
2011,09,24,09,14,16.10
2011,09,24,09,15,16.10
2011,09,24,09,16,16.10
2011,09,24,09,17,16.10
2011,09,24,09,18,16.10
2011,09,24,09,19,16.10
2011,09,24,09,20,16.10
2011,09,24,09,21,16.10
2011,09,24,09,22,16.10
2011,09,24,09,23,16.10
2011,09,24,09,24,16.10
2011,09,24,09,25,16.20
2011,09,24,09,26,16.20
2011,09,24,09,27,16.20
2011,09,24,09,28,16.30
2011,09,24,09,29,16.30
2011,09,24,09,30,16.30
2011,09,24,09,31,16.40
2011,09,24,09,32,16.40
2011,09,24,09,33,16.50
2011,09,24,09,34,16.50
2011,09,24,09,35,16.50
2011,09,24,09,36,16.50
2011,09,24,09,37,16.60
2011,09,24,09,38,16.60
2011,09,24,09,39,16.60
2011,09,24,09,40,16.60
2011,09,24,09,41,16.70
2011,09,24,09,42,16.70
2011,09,24,09,43,16.70
2011,09,24,09,44,16.70
2011,09,24,09,45,16.70
2011,09,24,09,46,16.80
2011,09,24,09,47,16.80
2011,09,24,09,48,16.80
2011,09,24,09,49,16.80
2011,09,24,09,50,16.80
2011,09,24,09,51,16.90
2011,09,24,09,52,16.90
2011,09,24,09,53,16.90
2011,09,24,09,54,17.00
2011,09,24,09,55,17.00
2011,09,24,09,56,17.10
2011,09,24,09,57,17.10
2011,09,24,09,58,17.10
2011,09,24,09,59,17.10
2011,09,24,10,00,17.20
2011,09,24,10,01,17.20
2011,09,24,10,02,17.20
2011,09,24,10,03,17.20
2011,09,24,10,04,17.20
2011,09,24,10,05,17.20
2011,09,24,10,06,17.20
2011,09,24,10,07,17.20
2011,09,24,10,08,17.20
2011,09,24,10,09,17.20
2011,09,24,10,10,17.20
2011,09,24,10,11,17.20
2011,09,24,10,12,17.20
2011,09,24,10,13,17.20
2011,09,24,10,14,17.20
2011,09,24,10,15,17.20
2011,09,24,10,16,17.20
2011,09,24,10,17,17.20
2011,09,24,10,18,17.20
2011,09,24,10,19,17.20
2011,09,24,10,20,17.30
2011,09,24,10,21,17.30
2011,09,24,10,22,17.30
2011,09,24,10,23,17.40
2011,09,24,10,24,17.40
2011,09,24,10,25,17.40
2011,09,24,10,26,17.40
2011,09,24,10,27,17.50
2011,09,24,10,28,17.50
2011,09,24,10,29,17.60
2011,09,24,10,30,17.60
2011,09,24,10,31,17.60
2011,09,24,10,32,17.60
2011,09,24,10,33,17.60
2011,09,24,10,34,17.60
2011,09,24,10,35,17.60
2011,09,24,10,36,17.60
2011,09,24,10,37,17.60
2011,09,24,10,38,17.70
2011,09,24,10,39,17.70
2011,09,24,10,40,17.70
2011,09,24,10,41,17.70
2011,09,24,10,42,17.70
2011,09,24,10,43,17.70
2011,09,24,10,44,17.70
2011,09,24,10,45,17.70
2011,09,24,10,46,17.70
2011,09,24,10,47,17.70
2011,09,24,10,48,17.70
2011,09,24,10,49,17.70
2011,09,24,10,50,17.70
2011,09,24,10,51,17.70
2011,09,24,10,52,17.70
2011,09,24,10,53,17.70
2011,09,24,10,54,17.70
2011,09,24,10,55,17.70
2011,09,24,10,56,17.70
2011,09,24,10,57,17.70
2011,09,24,10,58,17.70
2011,09,24,10,59,17.70
2011,09,24,11,00,17.70
2011,09,24,11,01,17.70
2011,09,24,11,02,17.70
2011,09,24,11,03,17.70
2011,09,24,11,04,17.60
2011,09,24,11,05,17.70
2011,09,24,11,06,17.70
2011,09,24,11,07,17.70
2011,09,24,11,08,17.70
2011,09,24,11,09,17.70
2011,09,24,11,10,17.70
2011,09,24,11,11,17.80
2011,09,24,11,12,17.70
2011,09,24,11,13,17.70
2011,09,24,11,14,17.70
2011,09,24,11,15,17.70
2011,09,24,11,16,17.70
2011,09,24,11,17,17.80
2011,09,24,11,18,17.80
2011,09,24,11,19,17.80
2011,09,24,11,20,17.90
2011,09,24,11,21,17.90
2011,09,24,11,22,17.90
2011,09,24,11,23,17.90
2011,09,24,11,24,17.90
2011,09,24,11,25,17.90
2011,09,24,11,26,17.90
2011,09,24,11,27,17.90
2011,09,24,11,28,17.80
2011,09,24,11,29,17.80
2011,09,24,11,30,17.80
2011,09,24,11,31,17.80
2011,09,24,11,32,17.80
2011,09,24,11,33,17.80
2011,09,24,11,34,17.80
2011,09,24,11,35,17.80
2011,09,24,11,36,17.90
2011,09,24,11,37,17.90
2011,09,24,11,38,17.90
2011,09,24,11,39,18.00
2011,09,24,11,40,18.00
2011,09,24,11,41,18.00
2011,09,24,11,42,18.10
2011,09,24,11,43,18.10
2011,09,24,11,44,18.20
2011,09,24,11,45,18.30
2011,09,24,11,46,18.40
2011,09,24,11,47,18.50
2011,09,24,11,48,18.50
2011,09,24,11,49,18.60
2011,09,24,11,50,18.50
2011,09,24,11,51,18.50
2011,09,24,11,52,18.40
2011,09,24,11,53,18.40
2011,09,24,11,54,18.30
2011,09,24,11,55,18.30
2011,09,24,11,56,18.30
2011,09,24,11,57,18.20
2011,09,24,11,58,18.20
2011,09,24,11,59,18.20
2011,09,24,12,00,18.20
2011,09,24,12,01,18.20
2011,09,24,12,02,18.20
2011,09,24,12,03,18.30
2011,09,24,12,04,18.30
2011,09,24,12,05,18.40
2011,09,24,12,06,18.50
2011,09,24,12,07,18.50
2011,09,24,12,08,18.50
2011,09,24,12,09,18.50
2011,09,24,12,10,18.60
2011,09,24,12,11,18.60
2011,09,24,12,12,18.50
2011,09,24,12,13,18.40
2011,09,24,12,14,18.40
2011,09,24,12,15,18.30
2011,09,24,12,16,18.30
2011,09,24,12,17,18.20
2011,09,24,12,18,18.20
2011,09,24,12,19,18.20
2011,09,24,12,20,18.20
2011,09,24,12,21,18.10
2011,09,24,12,22,18.10
2011,09,24,12,23,18.10
2011,09,24,12,24,18.20
2011,09,24,12,25,18.20
2011,09,24,12,26,18.20
2011,09,24,12,27,18.30
2011,09,24,12,28,18.30
2011,09,24,12,29,18.30
2011,09,24,12,30,18.30
2011,09,24,12,31,18.30
2011,09,24,12,32,18.40
2011,09,24,12,33,18.40
2011,09,24,12,34,18.50
2011,09,24,12,35,18.50
2011,09,24,12,36,18.50
2011,09,24,12,37,18.60
2011,09,24,12,38,18.60
2011,09,24,12,39,18.60
2011,09,24,12,40,18.70
2011,09,24,12,41,18.80
2011,09,24,12,42,18.80
2011,09,24,12,43,18.80
2011,09,24,12,44,18.80
2011,09,24,12,45,18.80
2011,09,24,12,46,18.80
2011,09,24,12,47,18.90
2011,09,24,12,48,18.90
2011,09,24,12,49,18.90
2011,09,24,12,50,19.00
2011,09,24,12,51,19.10
2011,09,24,12,52,19.10
2011,09,24,12,53,19.10
2011,09,24,12,54,19.20
2011,09,24,12,55,19.20
2011,09,24,12,56,19.20
2011,09,24,12,57,19.20
2011,09,24,12,58,19.20
2011,09,24,12,59,19.20
2011,09,24,13,00,19.20
2011,09,24,13,01,19.20
2011,09,24,13,02,19.20
2011,09,24,13,03,19.20
2011,09,24,13,04,19.20
2011,09,24,13,05,19.10
2011,09,24,13,06,19.10
2011,09,24,13,07,19.10
2011,09,24,13,08,19.10
2011,09,24,13,09,19.00
2011,09,24,13,10,19.00
2011,09,24,13,11,19.00
2011,09,24,13,12,19.00
2011,09,24,13,13,19.00
2011,09,24,13,14,19.00
2011,09,24,13,15,19.00
2011,09,24,13,16,19.00
2011,09,24,13,17,18.90
2011,09,24,13,18,18.90
2011,09,24,13,19,18.80
2011,09,24,13,20,18.80
2011,09,24,13,21,18.70
2011,09,24,13,22,18.70
2011,09,24,13,23,18.60
2011,09,24,13,24,18.60
2011,09,24,13,25,18.50
2011,09,24,13,26,18.40
2011,09,24,13,27,18.30
2011,09,24,13,28,18.30
2011,09,24,13,29,18.20
2011,09,24,13,30,18.20
2011,09,24,13,31,18.20
2011,09,24,13,32,18.20
2011,09,24,13,33,18.20
2011,09,24,13,34,18.20
2011,09,24,13,35,18.20
2011,09,24,13,36,18.10
2011,09,24,13,37,18.10
2011,09,24,13,38,18.10
2011,09,24,13,39,18.10
2011,09,24,13,40,18.10
2011,09,24,13,41,18.10
2011,09,24,13,42,18.10
2011,09,24,13,43,18.10
2011,09,24,13,44,18.10
2011,09,24,13,45,18.10
2011,09,24,13,46,18.10
2011,09,24,13,47,18.10
2011,09,24,13,48,18.10
2011,09,24,13,49,18.00
2011,09,24,13,50,17.90
2011,09,24,13,51,17.90
2011,09,24,13,52,17.80
2011,09,24,13,53,17.80
2011,09,24,13,54,17.80
2011,09,24,13,55,17.80
2011,09,24,13,56,17.80
2011,09,24,13,57,17.80
2011,09,24,13,58,17.80
2011,09,24,13,59,17.80
2011,09,24,14,00,17.80
2011,09,24,14,01,17.90
2011,09,24,14,02,17.90
2011,09,24,14,03,17.90
2011,09,24,14,04,17.90
2011,09,24,14,05,18.00
2011,09,24,14,06,18.00
2011,09,24,14,07,18.00
2011,09,24,14,08,18.00
2011,09,24,14,09,18.10
2011,09,24,14,10,18.10
2011,09,24,14,11,18.10
2011,09,24,14,12,18.10
2011,09,24,14,13,18.10
2011,09,24,14,14,18.10
2011,09,24,14,15,18.10
2011,09,24,14,16,18.10
2011,09,24,14,17,18.10
2011,09,24,14,18,18.10
2011,09,24,14,19,18.10
2011,09,24,14,20,18.10
2011,09,24,14,21,18.20
2011,09,24,14,22,18.20
2011,09,24,14,23,18.20
2011,09,24,14,24,18.20
2011,09,24,14,25,18.20
2011,09,24,14,26,18.20
2011,09,24,14,27,18.20
2011,09,24,14,28,18.20
2011,09,24,14,29,18.20
2011,09,24,14,30,18.20
2011,09,24,14,31,18.30
2011,09,24,14,32,18.30
2011,09,24,14,33,18.30
2011,09,24,14,34,18.30
2011,09,24,14,35,18.30
2011,09,24,14,36,18.40
2011,09,24,14,37,18.40
2011,09,24,14,38,18.40
2011,09,24,14,39,18.40
2011,09,24,14,40,18.40
2011,09,24,14,41,18.40
2011,09,24,14,42,18.30
2011,09,24,14,43,18.30
2011,09,24,14,44,18.30
2011,09,24,14,45,18.30
2011,09,24,14,46,18.30
2011,09,24,14,47,18.30
2011,09,24,14,48,18.30
2011,09,24,14,49,18.30
2011,09,24,14,50,18.30
2011,09,24,14,51,18.30
2011,09,24,14,52,18.40
2011,09,24,14,53,18.40
2011,09,24,14,54,18.40
2011,09,24,14,55,18.40
2011,09,24,14,56,18.40
2011,09,24,14,57,18.40
2011,09,24,14,58,18.40
2011,09,24,14,59,18.50
2011,09,24,15,00,18.50
2011,09,24,15,01,18.40
2011,09,24,15,02,18.40
2011,09,24,15,03,18.40
2011,09,24,15,04,18.40
2011,09,24,15,05,18.40
2011,09,24,15,06,18.40
2011,09,24,15,07,18.40
2011,09,24,15,08,18.40
2011,09,24,15,09,18.40
2011,09,24,15,10,18.40
2011,09,24,15,11,18.40
2011,09,24,15,12,18.50
2011,09,24,15,13,18.50
2011,09,24,15,14,18.50
2011,09,24,15,15,18.50
2011,09,24,15,16,18.60
2011,09,24,15,17,18.60
2011,09,24,15,18,18.60
2011,09,24,15,19,18.60
2011,09,24,15,20,18.60
2011,09,24,15,21,18.60
2011,09,24,15,22,18.60
2011,09,24,15,23,18.60
2011,09,24,15,24,18.60
2011,09,24,15,25,18.60
2011,09,24,15,26,18.60
2011,09,24,15,27,18.60
2011,09,24,15,28,18.60
2011,09,24,15,29,18.60
2011,09,24,15,30,18.60
2011,09,24,15,31,18.60
2011,09,24,15,32,18.60
2011,09,24,15,33,18.60
2011,09,24,15,34,18.60
2011,09,24,15,35,18.60
2011,09,24,15,36,18.60
2011,09,24,15,37,18.60
2011,09,24,15,38,18.60
2011,09,24,15,39,18.60
2011,09,24,15,40,18.60
2011,09,24,15,41,18.60
2011,09,24,15,42,18.60
2011,09,24,15,43,18.60
2011,09,24,15,44,18.60
2011,09,24,15,45,18.60
2011,09,24,15,46,18.60
2011,09,24,15,47,18.60
2011,09,24,15,48,18.60
2011,09,24,15,49,18.50
2011,09,24,15,50,18.50
2011,09,24,15,51,18.50
2011,09,24,15,52,18.40
2011,09,24,15,53,18.40
2011,09,24,15,54,18.30
2011,09,24,15,55,18.30
2011,09,24,15,56,18.30
2011,09,24,15,57,18.20
2011,09,24,15,58,18.20
2011,09,24,15,59,18.20
2011,09,24,16,00,18.20
2011,09,24,16,01,18.20
2011,09,24,16,02,18.10
2011,09,24,16,03,18.10
2011,09,24,16,04,18.00
2011,09,24,16,05,18.00
2011,09,24,16,06,17.90
2011,09,24,16,07,17.90
2011,09,24,16,08,17.90
2011,09,24,16,09,17.90
2011,09,24,16,10,17.80
2011,09,24,16,11,17.80
2011,09,24,16,12,17.80
2011,09,24,16,13,17.80
2011,09,24,16,14,17.70
2011,09,24,16,15,17.70
2011,09,24,16,16,17.70
2011,09,24,16,17,17.70
2011,09,24,16,18,17.60
2011,09,24,16,19,17.60
2011,09,24,16,20,17.60
2011,09,24,16,21,17.60
2011,09,24,16,22,17.60
2011,09,24,16,23,17.50
2011,09,24,16,24,17.50
2011,09,24,16,25,17.40
2011,09,24,16,26,17.40
2011,09,24,16,27,17.40
2011,09,24,16,28,17.40
2011,09,24,16,29,17.40
2011,09,24,16,30,17.40
2011,09,24,16,31,17.40
2011,09,24,16,32,17.40
2011,09,24,16,33,17.40
2011,09,24,16,34,17.40
2011,09,24,16,35,17.40
2011,09,24,16,36,17.40
2011,09,24,16,37,17.30
2011,09,24,16,38,17.30
2011,09,24,16,39,17.30
2011,09,24,16,40,17.20
2011,09,24,16,41,17.20
2011,09,24,16,42,17.20
2011,09,24,16,43,17.20
2011,09,24,16,44,17.20
2011,09,24,16,45,17.20
2011,09,24,16,46,17.20
2011,09,24,16,47,17.10
2011,09,24,16,48,17.20
2011,09,24,16,49,17.20
2011,09,24,16,50,17.10
2011,09,24,16,51,17.10
2011,09,24,16,52,17.10
2011,09,24,16,53,17.10
2011,09,24,16,54,17.20
2011,09,24,16,55,17.20
2011,09,24,16,56,17.20
2011,09,24,16,57,17.20
2011,09,24,16,58,17.20
2011,09,24,16,59,17.20
2011,09,24,17,00,17.20
2011,09,24,17,01,17.20
2011,09,24,17,02,17.20
2011,09,24,17,03,17.20
2011,09,24,17,04,17.20
2011,09,24,17,05,17.20
2011,09,24,17,06,17.20
2011,09,24,17,07,17.20
2011,09,24,17,08,17.20
2011,09,24,17,09,17.20
2011,09,24,17,10,17.20
2011,09,24,17,11,17.20
2011,09,24,17,12,17.10
2011,09,24,17,13,17.10
2011,09,24,17,14,17.10
2011,09,24,17,15,17.10
2011,09,24,17,16,17.10
2011,09,24,17,17,17.00
2011,09,24,17,18,17.00
2011,09,24,17,19,17.00
2011,09,24,17,20,17.00
2011,09,24,17,21,16.90
2011,09,24,17,22,17.00
2011,09,24,17,23,16.90